This is the latest recevied weather packets stored in our database for station/object W5GMO. If no packets are shown the sender has not sent any weather packets the latest 10 day(s).
| Time | Temp. | Humidity | Pressure | Rain* | Wind** | Luminosity | Snow |
|---|---|---|---|---|---|---|---|
| 1788444533 | 26.11° C | 1% | 1017.2 hPa | 0 mm | - | 323 W/m² | - |
| 1788444228 | 26.11° C | 1% | 1017.5 hPa | 0 mm | - | 334 W/m² | - |
| 1788443924 | 25.56° C | 1% | 1017.2 hPa | 0 mm | - | 168 W/m² | - |
| 1788443619 | 25.56° C | 1% | 1017 hPa | 0 mm | - | 168 W/m² | - |
| 1788443318 | 25.56° C | 1% | 1016.9 hPa | 0 mm | - | 161 W/m² | - |
| 1788443013 | 25.56° C | 1% | 1017.1 hPa | 0 mm | - | 135 W/m² | - |
| 1788442712 | 25° C | 1% | 1016.9 hPa | 0 mm | - | 104 W/m² | - |
| 1788442408 | 25° C | 1% | 1017 hPa | 0 mm | - | 94 W/m² | - |
| 1788442107 | 25° C | 1% | 1017.3 hPa | 0 mm | - | 94 W/m² | - |
| 1788441803 | 25° C | 1% | 1017.5 hPa | 0 mm | - | 104 W/m² | - |
| 1788441498 | 25° C | 1% | 1017.8 hPa | 0 mm | - | 107 W/m² | - |
| 1788441198 | 25° C | 1% | 1017.8 hPa | 0 mm | - | 112 W/m² | - |
| 1788440892 | 25° C | 1% | 1018 hPa | 0 mm | - | 154 W/m² | - |
| 1788440592 | 25° C | 1% | 1018 hPa | 0 mm | - | 132 W/m² | - |
| 1788440290 | 25° C | 1% | 1018.1 hPa | 0 mm | - | 160 W/m² | - |
| 1788439986 | 24.44° C | 1% | 1018.1 hPa | 0 mm | - | 166 W/m² | - |
| 1788439685 | 24.44° C | 1% | 1018.2 hPa | 0 mm | - | 140 W/m² | - |
| 1788439381 | 24.44° C | 1% | 1018.4 hPa | 0 mm | - | 116 W/m² | - |
| 1788439079 | 24.44° C | 1% | 1018.4 hPa | 0 mm | - | 93 W/m² | - |
| 1788438779 | 24.44° C | 1% | 1018.5 hPa | 0 mm | - | 80 W/m² | - |
| 1788438477 | 23.89° C | 1% | 1018.6 hPa | 0 mm | - | 68 W/m² | - |
| 1788438173 | 23.89° C | 1% | 1018.6 hPa | 0 mm | - | 55 W/m² | - |
| 1788437870 | 23.89° C | 1% | 1018.4 hPa | 0 mm | - | 51 W/m² | - |
| 1788437568 | 23.89° C | 1% | 1018.9 hPa | 0 mm | - | 53 W/m² | - |
| 1788437263 | 23.89° C | 1% | 1019 hPa | 0 mm | - | 43 W/m² | - |
* Rain latest hour (hover to see other rain measurements)
** Current wind speed in m/s (hover to see current wind gust speed)